HYS983 EDDF-EGLL

Flight info

Callsign HYS983
Flight time N/A
Altitude 38000
Route OBOKA3W OBOKA Z29 TORNU DCT ABNED L980 LOGAN
Aircraft A320/M-SDE3FGHIRWY/LB1

Departure

Time 2026-05-05 12:39
Airport Frankfurt Main Airport (EDDF)

Arrival

Time N/A
Airport London Heathrow Airport (EGLL)
Time Latitude Longitude Altitude Speed Heading
2026-05-05 12:16 50.05064 8.58759 361 ft 0 kts 315°
2026-05-05 12:29 50.05062 8.58760 354 ft 2 kts 315°
2026-05-05 12:29 50.05042 8.58783 360 ft 4 kts 333°
2026-05-05 12:29 50.05020 8.58803 359 ft 4 kts 314°
2026-05-05 12:30 50.05008 8.58836 359 ft 4 kts 270°
2026-05-05 12:30 50.05011 8.58862 357 ft 1 kts 249°
2026-05-05 12:30 50.05012 8.58866 358 ft 1 kts 249°
2026-05-05 12:32 50.05004 8.58835 359 ft 6 kts 249°
2026-05-05 12:32 50.04994 8.58793 356 ft 0 kts 249°
2026-05-05 12:33 50.04988 8.58771 357 ft 5 kts 249°
2026-05-05 12:33 50.04981 8.58739 352 ft 5 kts 249°
2026-05-05 12:33 50.04952 8.58675 356 ft 11 kts 208°
2026-05-05 12:34 50.04880 8.58687 337 ft 9 kts 161°
2026-05-05 12:34 50.04849 8.58705 335 ft 4 kts 160°
2026-05-05 12:34 50.04802 8.58734 331 ft 6 kts 159°
2026-05-05 12:34 50.04794 8.58739 331 ft 1 kts 159°
2026-05-05 12:35 50.04758 8.58760 329 ft 8 kts 159°
2026-05-05 12:35 50.04726 8.58773 327 ft 7 kts 180°
2026-05-05 12:35 50.04681 8.58769 327 ft 9 kts 185°
2026-05-05 12:35 50.04623 8.58755 324 ft 7 kts 195°
2026-05-05 12:36 50.04577 8.58708 323 ft 10 kts 220°
2026-05-05 12:36 50.04567 8.58693 322 ft 0 kts 220°
2026-05-05 12:36 50.04566 8.58693 322 ft 0 kts 220°
2026-05-05 12:36 50.04563 8.58688 323 ft 1 kts 220°
2026-05-05 12:37 50.04550 8.58672 324 ft 3 kts 220°
2026-05-05 12:37 50.04537 8.58655 324 ft 2 kts 220°
2026-05-05 12:37 50.04523 8.58640 325 ft 4 kts 215°
2026-05-05 12:37 50.04491 8.58596 329 ft 7 kts 233°
2026-05-05 12:38 50.04478 8.58549 328 ft 0 kts 249°
2026-05-05 12:38 50.04447 8.58424 328 ft 48 kts 249°
2026-05-05 12:38 50.04219 8.57479 337 ft 133 kts 249°
2026-05-05 12:39 50.03832 8.55882 670 ft 172 kts 249°
2026-05-05 12:39 50.03399 8.54036 1364 ft 192 kts 250°
2026-05-05 12:39 50.03094 8.52702 1893 ft 203 kts 250°
2026-05-05 12:39 50.02578 8.50625 2805 ft 206 kts 240°
2026-05-05 12:40 50.01636 8.48940 3581 ft 209 kts 214°
2026-05-05 12:40 50.00330 8.48046 4440 ft 209 kts 190°
2026-05-05 12:40 49.98872 8.47713 5310 ft 209 kts 188°
2026-05-05 12:40 49.97425 8.47396 6152 ft 211 kts 188°
2026-05-05 12:41 49.95964 8.47026 6928 ft 215 kts 194°
2026-05-05 12:41 49.94460 8.46362 7331 ft 239 kts 196°
2026-05-05 12:41 49.92837 8.45527 8009 ft 250 kts 205°
2026-05-05 12:41 49.91371 8.44027 8860 ft 256 kts 221°
2026-05-05 12:42 49.90240 8.41872 9752 ft 261 kts 237°
2026-05-05 12:42 49.89324 8.39407 10545 ft 265 kts 243°
2026-05-05 12:42 49.88738 8.36660 11340 ft 273 kts 257°
2026-05-05 12:42 49.88643 8.33631 11641 ft 299 kts 273°
2026-05-05 12:43 49.88830 8.30284 11880 ft 323 kts 274°
2026-05-05 12:43 49.89352 8.26794 12322 ft 339 kts 290°
2026-05-05 12:43 49.90499 8.23559 13021 ft 347 kts 305°
2026-05-05 12:43 49.91951 8.20544 13744 ft 350 kts 305°
2026-05-05 12:44 49.93415 8.17488 14410 ft 355 kts 306°
2026-05-05 12:44 49.95108 8.14665 15041 ft 360 kts 317°
2026-05-05 12:44 49.96989 8.12138 15568 ft 362 kts 318°
2026-05-05 12:44 49.98919 8.09560 15981 ft 369 kts 318°
2026-05-05 12:45 50.00873 8.06960 16669 ft 371 kts 318°
2026-05-05 12:45 50.02848 8.04326 17323 ft 374 kts 317°
2026-05-05 12:45 50.04826 8.01664 17981 ft 377 kts 315°
2026-05-05 12:45 50.06482 7.98514 18522 ft 377 kts 300°
2026-05-05 12:46 50.07893 7.95052 19082 ft 381 kts 300°
2026-05-05 12:46 50.09314 7.91542 19593 ft 383 kts 300°
2026-05-05 12:46 50.10735 7.88014 20013 ft 386 kts 300°
2026-05-05 12:46 50.12148 7.84502 20561 ft 389 kts 300°
2026-05-05 12:47 50.13592 7.80914 21094 ft 392 kts 300°
2026-05-05 12:47 50.15052 7.77291 21670 ft 393 kts 300°
2026-05-05 12:47 50.16494 7.73719 22541 ft 387 kts 300°
2026-05-05 12:47 50.17925 7.70170 23218 ft 386 kts 300°
2026-05-05 12:48 50.19366 7.66593 23729 ft 389 kts 300°
2026-05-05 12:48 50.20808 7.63010 24162 ft 391 kts 300°
2026-05-05 12:48 50.22237 7.59450 24488 ft 391 kts 299°
2026-05-05 12:48 50.23683 7.55835 24822 ft 392 kts 299°
2026-05-05 12:49 50.25120 7.52233 25128 ft 388 kts 298°
2026-05-05 12:49 50.26548 7.48651 25393 ft 389 kts 298°
2026-05-05 12:49 50.27968 7.45076 25599 ft 384 kts 298°
2026-05-05 12:49 50.29359 7.41576 25882 ft 373 kts 298°
2026-05-05 12:50 50.30709 7.38187 26194 ft 361 kts 298°
2026-05-05 12:50 50.32041 7.34840 26494 ft 364 kts 298°
2026-05-05 12:50 50.33391 7.31431 26756 ft 373 kts 297°
2026-05-05 12:50 50.34773 7.27929 26887 ft 384 kts 297°
2026-05-05 12:51 50.36174 7.24373 27094 ft 393 kts 298°
2026-05-05 12:51 50.37620 7.20702 27455 ft 397 kts 297°
2026-05-05 12:51 50.39077 7.17001 27870 ft 400 kts 297°
2026-05-05 12:51 50.40542 7.13279 28298 ft 402 kts 297°
2026-05-05 12:52 50.42021 7.09526 28720 ft 405 kts 297°
2026-05-05 12:52 50.43502 7.05756 29154 ft 407 kts 297°
2026-05-05 12:52 50.44987 7.01968 29629 ft 407 kts 297°
2026-05-05 12:52 50.46472 6.98172 30044 ft 409 kts 296°
2026-05-05 12:53 50.47965 6.94350 30424 ft 411 kts 297°
2026-05-05 12:53 50.49449 6.90548 30818 ft 414 kts 297°
2026-05-05 12:53 50.50958 6.86680 31201 ft 416 kts 296°
2026-05-05 12:53 50.52472 6.82792 31615 ft 417 kts 296°
2026-05-05 12:54 50.55490 6.75029 32640 ft 414 kts 296°
2026-05-05 12:54 50.56986 6.71162 33127 ft 413 kts 295°
2026-05-05 12:54 50.58481 6.67285 33597 ft 412 kts 295°
2026-05-05 12:55 50.59950 6.63465 33821 ft 413 kts 295°
2026-05-05 12:55 50.62924 6.55744 33852 ft 412 kts 295°
2026-05-05 12:56 50.65896 6.48030 33853 ft 411 kts 295°
2026-05-05 12:56 50.68848 6.40305 33855 ft 411 kts 295°
2026-05-05 12:57 50.71772 6.32635 33875 ft 408 kts 295°
2026-05-05 12:57 50.74701 6.24968 33875 ft 407 kts 295°
2026-05-05 12:58 50.77623 6.17285 33886 ft 406 kts 295°
2026-05-05 12:58 50.80524 6.09613 33905 ft 407 kts 295°
2026-05-05 12:59 50.83411 6.01964 33890 ft 409 kts 295°
2026-05-05 12:59 50.86386 5.94047 33904 ft 429 kts 295°
2026-05-05 13:00 50.89497 5.85713 33905 ft 448 kts 295°
2026-05-05 13:00 50.91097 5.81433 33889 ft 454 kts 296°
2026-05-05 13:01 50.97575 5.64088 33900 ft 459 kts 296°
2026-05-05 13:01 51.00801 5.55376 33897 ft 462 kts 295°
2026-05-05 13:02 51.04065 5.46539 33903 ft 462 kts 295°
2026-05-05 13:02 51.07300 5.37751 33902 ft 462 kts 295°
2026-05-05 13:03 51.10541 5.28924 33906 ft 462 kts 295°
2026-05-05 13:03 51.13787 5.20057 33921 ft 463 kts 296°
2026-05-05 13:04 51.16998 5.11222 33909 ft 463 kts 295°
2026-05-05 13:04 51.20225 5.02318 33910 ft 463 kts 295°
2026-05-05 13:05 51.23451 4.93412 33922 ft 463 kts 295°
2026-05-05 13:05 51.26664 4.84531 33920 ft 460 kts 295°
2026-05-05 13:06 51.29834 4.75706 33947 ft 461 kts 295°
2026-05-05 13:06 51.33027 4.66785 33924 ft 463 kts 295°
2026-05-05 13:07 51.36218 4.57819 33922 ft 463 kts 295°
2026-05-05 13:07 51.39403 4.48835 33921 ft 463 kts 295°
2026-05-05 13:08 51.42587 4.39849 33923 ft 463 kts 295°
2026-05-05 13:08 51.45749 4.30909 33919 ft 463 kts 295°
2026-05-05 13:09 51.48921 4.21903 33923 ft 463 kts 295°
2026-05-05 13:09 51.52078 4.12915 33917 ft 459 kts 294°
2026-05-05 13:10 51.55197 4.03989 33921 ft 458 kts 294°
2026-05-05 13:10 51.58302 3.95042 33922 ft 458 kts 294°
2026-05-05 13:11 51.61401 3.86093 33919 ft 458 kts 294°
2026-05-05 13:11 51.62425 3.83125 33935 ft 459 kts 294°